QPF
0.00 0.00 0.00 0.00 0.00 0.00 0.00 0.00 0.01 0.01 0.02 0.02 0.04 0.07 0.12 0.17 0.17 0.13 0.09 0.06 0.03 0.02 0.02 0.01 0.01 0.01 0.01 0.02 0.02 0.02 0.02 0.02 0.02 0.01 0.00 0.00 0.00 0.00 0.00 0.00 0.00 0.00 0.00 0.00
0.00 0.00 0.00 0.00 0.00 0.00 0.00 0.00 0.01 0.01 0.02 0.03 0.05 0.08 0.12 0.14 0.13 0.10 0.07 0.04 0.03 0.02 0.02 0.02 0.01 0.01 0.01 0.02 0.02 0.02 0.03 0.02 0.02 0.02 0.01 0.00 0.00 0.00 0.00 0.00 0.00 0.00 0.00 0.00
0.00 0.00 0.00 0.00 0.00 0.00 0.00 0.00 0.00 0.01 0.02 0.04 0.07 0.08 0.08 0.08 0.06 0.04 0.02 0.02 0.02 0.01 0.02 0.01 0.01 0.01 0.02 0.03 0.03 0.03 0.02 0.02 0.02 0.01 0.01 0.00 0.00 0.00 0.00 0.00 0.00 0.00 0.00 0.00
0.00 0.00 0.00 0.00 0.00 0.00 0.00 0.00 0.00 0.00 0.01 0.02 0.03 0.03 0.02 0.02 0.01 0.01 0.01 0.00 0.00 0.00 0.00 0.00 0.00 0.00 0.02 0.04 0.04 0.03 0.02 0.01 0.00 0.00 0.00 0.00 0.00 0.00 0.00 0.00 0.00 0.00 0.00 0.00
0.00 0.00 0.00 0.00 0.00 0.00 0.00 0.00 0.00 0.00 0.00 0.00 0.00 0.01 0.01 0.01 0.00 0.00 0.00 0.00 0.00 0.00 0.00 0.00 0.00 0.01 0.02 0.04 0.05 0.05 0.03 0.01 0.00 0.00 0.00 0.00 0.00 0.00 0.00 0.00 0.00 0.00 0.01 0.00
0.00 0.00 0.00 0.00 0.00 0.00 0.00 0.00 0.00 0.00 0.00 0.00 0.00 0.01 0.01 0.00 0.00 0.00 0.00 0.00 0.00 0.00 0.00 0.00 0.01 0.02 0.04 0.05 0.05 0.04 0.03 0.01 0.00 0.00 0.00 0.00 0.00 0.00 0.00 0.00 0.00 0.00 0.01 0.01
0.00 0.00 0.00 0.00 0.00 0.00 0.00 0.00 0.00 0.00 0.00 0.00 0.00 0.00 0.00 0.00 0.00 0.00 0.00 0.00 0.00 0.00 0.00 0.01 0.02 0.03 0.04 0.05 0.04 0.02 0.02 0.01 0.01 0.00 0.00 0.00 0.00 0.00 0.00 0.00 0.00 0.00 0.00 0.00
0.00 0.00 0.00 0.00 0.00 0.00 0.00 0.00 0.00 0.00 0.00 0.00 0.00 0.00 0.00 0.00 0.00 0.00 0.00 0.00 0.00 0.00 0.01 0.01 0.02 0.02 0.03 0.03 0.02 0.02 0.01 0.00 0.00 0.00 0.00 0.00 0.00 0.00 0.00 0.00 0.00 0.00 0.00 0.00
0.00 0.00 0.00 0.00 0.00 0.00 0.00 0.00 0.00 0.00 0.00 0.00 0.00 0.00 0.00 0.00 0.00 0.00 0.00 0.00 0.00 0.00 0.01 0.01 0.01 0.02 0.02 0.02 0.01 0.01 0.01 0.00 0.00 0.00 0.00 0.00 0.00 0.00 0.00 0.00 0.00 0.00 0.00 0.00
0.00 0.00 0.00 0.00 0.00 0.00 0.00 0.00 0.00 0.00 0.00 0.00 0.00 0.00 0.00 0.00 0.00 0.00 0.00 0.00 0.00 0.00 0.01 0.01 0.02 0.02 0.02 0.01 0.01 0.01 0.01 0.00 0.00 0.00 0.00 0.00 0.00 0.00 0.00 0.00 0.00 0.00 0.00 0.00
0.00 0.00 0.00 0.00 0.00 0.00 0.00 0.00 0.00 0.00 0.00 0.00 0.00 0.00 0.00 0.00 0.00 0.00 0.00 0.00 0.00 0.00 0.01 0.01 0.01 0.01 0.01 0.01 0.00 0.00 0.01 0.00 0.00 0.00 0.00 0.00 0.00 0.00 0.00 0.00 0.00 0.00 0.00 0.00
0.00 0.00 0.00 0.00 0.00 0.00 0.00 0.00 0.00 0.00 0.00 0.00 0.00 0.00 0.00 0.00 0.00 0.00 0.00 0.00 0.00 0.00 0.00 0.01 0.00 0.00 0.00 0.01 0.01 0.01 0.01 0.00 0.00 0.00 0.00 0.00 0.00 0.00 0.00 0.00 0.00 0.00 0.00 0.00
0.00 0.00 0.00 0.00 0.00 0.00 0.00 0.00 0.00 0.00 0.00 0.00 0.00 0.00 0.00 0.00 0.00 0.00 0.00 0.00 0.00 0.00 0.00 0.00 0.00 0.00 0.00 0.00 0.00 0.00 0.00 0.00 0.00 0.00 0.00 0.00 0.00 0.00 0.00 0.00 0.00 0.00 0.00 0.00
0.00 0.00 0.00 0.00 0.00 0.00 0.00 0.00 0.00 0.00 0.00 0.00 0.00 0.00 0.00 0.00 0.00 0.00 0.00 0.00 0.00 0.00 0.00 0.00 0.00 0.00 0.00 0.00 0.00 0.00 0.00 0.00 0.00 0.00 0.00 0.00 0.00 0.00 0.00 0.00 0.00 0.00 0.00 0.00
0.00 0.00 0.00 0.00 0.00 0.00 0.00 0.00 0.00 0.00 0.00 0.00 0.00 0.00 0.00 0.00 0.00 0.00 0.00 0.00 0.00 0.00 0.00 0.00 0.00 0.00 0.00 0.00 0.00 0.00 0.00 0.00 0.00 0.00 0.00 0.00 0.00 0.00 0.00 0.00 0.00 0.00 0.00 0.00
0.00 0.01 0.01 0.00 0.00 0.00 0.00 0.00 0.00 0.00 0.00 0.00 0.00 0.00 0.00 0.00 0.00 0.00 0.00 0.00 0.00 0.00 0.00 0.00 0.00 0.00 0.00 0.00 0.00 0.00 0.00 0.00 0.00 0.00 0.00 0.00 0.00 0.00 0.00 0.00 0.00 0.00 0.00 0.00
0.01 0.01 0.01 0.01 0.00 0.00 0.00 0.00 0.00 0.00 0.00 0.00 0.00 0.00 0.00 0.00 0.00 0.00 0.00 0.00 0.00 0.00 0.00 0.00 0.00 0.00 0.00 0.00 0.00 0.00 0.00 0.00 0.00 0.00 0.00 0.00 0.00 0.00 0.00 0.00 0.00 0.00 0.00 0.00
0.02 0.01 0.01 0.00 0.00 0.00 0.00 0.00 0.00 0.00 0.00 0.00 0.00 0.00 0.00 0.00 0.00 0.00 0.00 0.00 0.00 0.00 0.00 0.00 0.00 0.00 0.00 0.00 0.00 0.00 0.00 0.00 0.00 0.00 0.00 0.00 0.00 0.00 0.00 0.00 0.00 0.00 0.00 0.00
0.02 0.02 0.01 0.01 0.01 0.00 0.00 0.00 0.00 0.00 0.00 0.00 0.00 0.00 0.00 0.00 0.00 0.00 0.00 0.00 0.00 0.00 0.00 0.00 0.00 0.00 0.00 0.00 0.00 0.00 0.00 0.00 0.00 0.00 0.00 0.00 0.00 0.00 0.00 0.00 0.00 0.00 0.00 0.00
0.06 0.05 0.05 0.04 0.03 0.02 0.01 0.00 0.00 0.00 0.00 0.00 0.00 0.00 0.00 0.00 0.00 0.00 0.00 0.00 0.00 0.00 0.00 0.00 0.00 0.00 0.00 0.00 0.00 0.00 0.00 0.00 0.00 0.00 0.00 0.00 0.00 0.00 0.00 0.00 0.00 0.00 0.00 0.00
0.15 0.14 0.14 0.12 0.09 0.06 0.03 0.01 0.01 0.00 0.00 0.00 0.00 0.00 0.00 0.00 0.00 0.00 0.00 0.00 0.00 0.00 0.00 0.00 0.00 0.00 0.00 0.00 0.00 0.00 0.00 0.00 0.00 0.00 0.00 0.00 0.00 0.00 0.00 0.00 0.00 0.00 0.00 0.00
0.23 0.24 0.23 0.20 0.16 0.11 0.07 0.04 0.02 0.01 0.00 0.00 0.00 0.00 0.00 0.00 0.00 0.00 0.00 0.00 0.00 0.00 0.00 0.00 0.00 0.00 0.00 0.00 0.00 0.00 0.00 0.00 0.00 0.00 0.00 0.00 0.00 0.00 0.00 0.00 0.00 0.00 0.00 0.00
0.21 0.20 0.18 0.15 0.12 0.08 0.04 0.02 0.01 0.01 0.00 0.00 0.00 0.00 0.01 0.01 0.01 0.00 0.00 0.00 0.00 0.00 0.00 0.00 0.00 0.00 0.00 0.00 0.00 0.00 0.00 0.00 0.00 0.00 0.00 0.00 0.00 0.00 0.00 0.00 0.00 0.00 0.00 0.00
0.05 0.05 0.04 0.03 0.03 0.02 0.01 0.00 0.00 0.00 0.00 0.00 0.00 0.00 0.01 0.02 0.01 0.01 0.00 0.00 0.00 0.00 0.00 0.00 0.00 0.00 0.00 0.00 0.00 0.00 0.00 0.00 0.00 0.00 0.00 0.00 0.00 0.00 0.00 0.00 0.00 0.00 0.00 0.01
0.01 0.01 0.01 0.01 0.01 0.01 0.00 0.00 0.00 0.00 0.00 0.00 0.00 0.01 0.02 0.02 0.02 0.02 0.01 0.01 0.01 0.00 0.00 0.00 0.00 0.00 0.00 0.00 0.00 0.00 0.00 0.00 0.00 0.00 0.00 0.00 0.00 0.00 0.00 0.00 0.00 0.00 0.00 0.01
0.00 0.00 0.00 0.01 0.01 0.01 0.01 0.01 0.01 0.01 0.01 0.01 0.02 0.02 0.03 0.03 0.03 0.03 0.02 0.01 0.01 0.01 0.00 0.00 0.00 0.00 0.00 0.00 0.00 0.00 0.00 0.00 0.00 0.00 0.00 0.00 0.00 0.00 0.00 0.00 0.00 0.01 0.01 0.01
0.00 0.01 0.01 0.02 0.02 0.03 0.03 0.03 0.03 0.03 0.03 0.03 0.03 0.03 0.03 0.04 0.03 0.02 0.02 0.01 0.01 0.01 0.00 0.00 0.00 0.00 0.00 0.00 0.00 0.00 0.00 0.00 0.00 0.00 0.00 0.00 0.00 0.00 0.00 0.00 0.00 0.01 0.01 0.01
MSLP
1015.15 1015.56 1015.94 1016.26 1016.48 1016.60 1016.59 1016.45 1016.19 1015.84 1015.43 1015.00 1014.60 1014.25 1013.99 1013.80 1013.70 1013.65 1013.63 1013.62 1013.60 1013.56 1013.49 1013.41 1013.32 1013.25 1013.21 1013.21 1013.26 1013.34 1013.46 1013.60 1013.73 1013.87 1013.99 1014.11 1014.20 1014.28 1014.35 1014.40 1014.43 1014.43 1014.39 1014.31
1014.97 1015.27 1015.49 1015.62 1015.65 1015.58 1015.41 1015.16 1014.86 1014.53 1014.22 1013.94 1013.73 1013.59 1013.53 1013.53 1013.57 1013.64 1013.70 1013.73 1013.74 1013.71 1013.65 1013.59 1013.53 1013.49 1013.49 1013.52 1013.59 1013.69 1013.81 1013.93 1014.05 1014.15 1014.25 1014.34 1014.41 1014.48 1014.54 1014.60 1014.63 1014.64 1014.62 1014.56
1014.68 1014.84 1014.92 1014.88 1014.76 1014.54 1014.26 1013.96 1013.65 1013.39 1013.18 1013.06 1013.03 1013.07 1013.18 1013.33 1013.49 1013.62 1013.72 1013.77 1013.77 1013.73 1013.68 1013.62 1013.58 1013.58 1013.62 1013.70 1013.81 1013.94 1014.07 1014.19 1014.30 1014.40 1014.47 1014.54 1014.60 1014.66 1014.72 1014.78 1014.83 1014.86 1014.86 1014.82
1014.36 1014.39 1014.31 1014.14 1013.89 1013.57 1013.23 1012.90 1012.63 1012.43 1012.34 1012.35 1012.47 1012.67 1012.91 1013.16 1013.38 1013.55 1013.66 1013.70 1013.67 1013.62 1013.55 1013.50 1013.48 1013.52 1013.60 1013.74 1013.90 1014.07 1014.23 1014.38 1014.50 1014.59 1014.66 1014.71 1014.77 1014.83 1014.90 1014.97 1015.03 1015.07 1015.09 1015.08
1014.07 1013.95 1013.75 1013.46 1013.11 1012.72 1012.34 1012.01 1011.77 1011.64 1011.64 1011.77 1012.00 1012.30 1012.63 1012.94 1013.21 1013.39 1013.49 1013.50 1013.45 1013.38 1013.30 1013.25 1013.26 1013.34 1013.47 1013.66 1013.88 1014.10 1014.31 1014.49 1014.63 1014.74 1014.81 1014.88 1014.94 1015.00 1015.08 1015.16 1015.24 1015.31 1015.35 1015.35
1013.81 1013.57 1013.24 1012.84 1012.41 1011.97 1011.57 1011.25 1011.04 1010.96 1011.03 1011.24 1011.55 1011.92 1012.30 1012.65 1012.93 1013.12 1013.20 1013.20 1013.14 1013.05 1012.98 1012.95 1012.99 1013.10 1013.29 1013.53 1013.80 1014.08 1014.33 1014.55 1014.72 1014.85 1014.95 1015.03 1015.10 1015.18 1015.28 1015.37 1015.47 1015.56 1015.62 1015.64
1013.56 1013.19 1012.75 1012.27 1011.77 1011.30 1010.88 1010.56 1010.37 1010.33 1010.44 1010.69 1011.04 1011.45 1011.87 1012.25 1012.54 1012.74 1012.83 1012.84 1012.78 1012.71 1012.65 1012.65 1012.72 1012.87 1013.10 1013.39 1013.71 1014.03 1014.33 1014.59 1014.79 1014.96 1015.08 1015.19 1015.28 1015.38 1015.49 1015.61 1015.73 1015.83 1015.91 1015.94
1013.22 1012.75 1012.23 1011.68 1011.14 1010.63 1010.20 1009.88 1009.71 1009.68 1009.82 1010.09 1010.46 1010.90 1011.33 1011.73 1012.05 1012.28 1012.40 1012.44 1012.42 1012.39 1012.37 1012.40 1012.51 1012.70 1012.96 1013.29 1013.64 1013.99 1014.32 1014.61 1014.85 1015.05 1015.20 1015.34 1015.46 1015.59 1015.72 1015.86 1015.99 1016.11 1016.21 1016.26
1012.70 1012.15 1011.57 1010.99 1010.43 1009.91 1009.48 1009.17 1009.00 1008.99 1009.13 1009.41 1009.79 1010.24 1010.70 1011.13 1011.49 1011.77 1011.95 1012.05 1012.09 1012.12 1012.16 1012.24 1012.38 1012.60 1012.89 1013.23 1013.59 1013.96 1014.31 1014.63 1014.90 1015.12 1015.31 1015.47 1015.63 1015.78 1015.94 1016.09 1016.25 1016.39 1016.50 1016.57
1011.90 1011.31 1010.72 1010.13 1009.58 1009.09 1008.68 1008.38 1008.23 1008.22 1008.37 1008.65 1009.04 1009.50 1009.98 1010.45 1010.87 1011.21 1011.47 1011.66 1011.79 1011.89 1012.00 1012.13 1012.32 1012.56 1012.85 1013.20 1013.56 1013.94 1014.29 1014.62 1014.91 1015.16 1015.38 1015.57 1015.75 1015.93 1016.11 1016.29 1016.46 1016.61 1016.74 1016.84
1010.76 1010.19 1009.62 1009.08 1008.57 1008.13 1007.77 1007.51 1007.39 1007.40 1007.55 1007.83 1008.23 1008.70 1009.21 1009.72 1010.20 1010.62 1010.97 1011.25 1011.48 1011.67 1011.85 1012.04 1012.26 1012.52 1012.82 1013.15 1013.51 1013.88 1014.23 1014.56 1014.86 1015.13 1015.37 1015.60 1015.80 1016.00 1016.20 1016.40 1016.58 1016.76 1016.91 1017.02
1009.33 1008.80 1008.30 1007.83 1007.42 1007.06 1006.78 1006.59 1006.50 1006.54 1006.71 1007.00 1007.39 1007.87 1008.40 1008.94 1009.48 1009.97 1010.41 1010.78 1011.10 1011.38 1011.63 1011.87 1012.13 1012.41 1012.71 1013.04 1013.39 1013.74 1014.09 1014.42 1014.73 1015.02 1015.28 1015.52 1015.75 1015.97 1016.18 1016.39 1016.59 1016.77 1016.94 1017.08
1007.69 1007.24 1006.84 1006.49 1006.19 1005.95 1005.77 1005.66 1005.64 1005.71 1005.90 1006.18 1006.57 1007.05 1007.58 1008.14 1008.71 1009.25 1009.76 1010.21 1010.61 1010.96 1011.28 1011.58 1011.87 1012.17 1012.48 1012.80 1013.15 1013.50 1013.84 1014.18 1014.50 1014.80 1015.08 1015.34 1015.58 1015.81 1016.02 1016.23 1016.44 1016.63 1016.81 1016.97
1006.03 1005.68 1005.40 1005.18 1005.02 1004.91 1004.84 1004.82 1004.86 1004.97 1005.16 1005.44 1005.81 1006.26 1006.77 1007.32 1007.90 1008.46 1009.01 1009.51 1009.97 1010.38 1010.76 1011.10 1011.43 1011.76 1012.08 1012.42 1012.77 1013.12 1013.48 1013.82 1014.16 1014.47 1014.76 1015.03 1015.27 1015.50 1015.72 1015.92 1016.12 1016.31 1016.50 1016.67
1004.55 1004.30 1004.14 1004.06 1004.03 1004.04 1004.08 1004.14 1004.24 1004.37 1004.56 1004.82 1005.14 1005.54 1006.00 1006.51 1007.06 1007.61 1008.16 1008.69 1009.18 1009.63 1010.05 1010.44 1010.80 1011.16 1011.52 1011.88 1012.25 1012.62 1012.99 1013.35 1013.70 1014.03 1014.33 1014.60 1014.84 1015.06 1015.26 1015.46 1015.64 1015.82 1016.00 1016.18
1003.42 1003.26 1003.22 1003.25 1003.34 1003.45 1003.58 1003.70 1003.83 1003.97 1004.13 1004.33 1004.59 1004.91 1005.29 1005.73 1006.21 1006.72 1007.23 1007.75 1008.25 1008.72 1009.17 1009.60 1010.01 1010.41 1010.80 1011.20 1011.60 1012.00 1012.40 1012.78 1013.14 1013.48 1013.78 1014.05 1014.28 1014.49 1014.67 1014.84 1015.01 1015.18 1015.35 1015.53
1002.76 1002.68 1002.72 1002.84 1003.01 1003.19 1003.36 1003.51 1003.63 1003.75 1003.86 1003.99 1004.15 1004.37 1004.64 1004.98 1005.37 1005.80 1006.26 1006.74 1007.22 1007.70 1008.16 1008.62 1009.07 1009.51 1009.95 1010.40 1010.84 1011.27 1011.70 1012.10 1012.48 1012.82 1013.12 1013.38 1013.60 1013.79 1013.95 1014.10 1014.25 1014.40 1014.56 1014.74
1002.60 1002.58 1002.66 1002.82 1003.02 1003.22 1003.40 1003.53 1003.62 1003.68 1003.71 1003.74 1003.80 1003.90 1004.05 1004.26 1004.54 1004.88 1005.26 1005.68 1006.13 1006.60 1007.07 1007.55 1008.03 1008.52 1009.01 1009.49 1009.98 1010.45 1010.90 1011.33 1011.72 1012.07 1012.36 1012.61 1012.81 1012.98 1013.12 1013.25 1013.38 1013.52 1013.68 1013.86
1002.88 1002.86 1002.95 1003.11 1003.29 1003.46 1003.59 1003.67 1003.69 1003.66 1003.60 1003.53 1003.47 1003.44 1003.47 1003.56 1003.72 1003.95 1004.25 1004.61 1005.01 1005.45 1005.92 1006.41 1006.92 1007.44 1007.97 1008.50 1009.02 1009.53 1010.01 1010.45 1010.85 1011.20 1011.49 1011.73 1011.92 1012.07 1012.20 1012.32 1012.44 1012.58 1012.75 1012.94
1003.41 1003.37 1003.43 1003.53 1003.64 1003.74 1003.80 1003.79 1003.72 1003.60 1003.43 1003.25 1003.07 1002.93 1002.84 1002.82 1002.87 1003.00 1003.22 1003.51 1003.86 1004.27 1004.73 1005.22 1005.75 1006.30 1006.85 1007.42 1007.97 1008.51 1009.01 1009.47 1009.88 1010.23 1010.51 1010.75 1010.93 1011.08 1011.21 1011.33 1011.46 1011.61 1011.80 1012.01
1003.99 1003.91 1003.89 1003.91 1003.93 1003.92 1003.87 1003.76 1003.59 1003.37 1003.10 1002.82 1002.55 1002.31 1002.12 1002.00 1001.96 1002.01 1002.15 1002.38 1002.68 1003.06 1003.49 1003.98 1004.51 1005.08 1005.66 1006.24 1006.82 1007.38 1007.90 1008.38 1008.79 1009.15 1009.44 1009.68 1009.87 1010.03 1010.17 1010.31 1010.46 1010.64 1010.86 1011.11
1004.45 1004.29 1004.18 1004.09 1003.99 1003.87 1003.71 1003.49 1003.22 1002.90 1002.55 1002.20 1001.85 1001.53 1001.27 1001.08 1000.98 1000.96 1001.04 1001.21 1001.47 1001.81 1002.22 1002.70 1003.22 1003.79 1004.38 1004.99 1005.58 1006.16 1006.70 1007.19 1007.62 1007.99 1008.30 1008.55 1008.76 1008.95 1009.11 1009.29 1009.48 1009.70 1009.95 1010.25
1004.66 1004.41 1004.20 1003.99 1003.78 1003.54 1003.26 1002.95 1002.59 1002.20 1001.79 1001.37 1000.98 1000.62 1000.31 1000.08 999.92 999.85 999.88 1000.01 1000.22 1000.53 1000.91 1001.37 1001.89 1002.45 1003.05 1003.66 1004.27 1004.86 1005.42 1005.93 1006.39 1006.78 1007.12 1007.41 1007.65 1007.87 1008.08 1008.30 1008.53 1008.80 1009.10 1009.44
1004.57 1004.24 1003.92 1003.61 1003.28 1002.94 1002.57 1002.17 1001.74 1001.30 1000.85 1000.41 999.99 999.61 999.28 999.02 998.83 998.73 998.72 998.81 998.98 999.25 999.61 1000.04 1000.54 1001.09 1001.69 1002.31 1002.93 1003.54 1004.12 1004.66 1005.15 1005.58 1005.96 1006.29 1006.58 1006.84 1007.10 1007.37 1007.65 1007.96 1008.31 1008.69
1004.23 1003.82 1003.41 1003.00 1002.59 1002.16 1001.72 1001.26 1000.79 1000.32 999.85 999.40 998.98 998.60 998.26 997.99 997.78 997.66 997.61 997.66 997.80 998.03 998.35 998.75 999.23 999.77 1000.36 1000.99 1001.62 1002.26 1002.86 1003.44 1003.97 1004.44 1004.87 1005.25 1005.59 1005.90 1006.21 1006.52 1006.85 1007.21 1007.60 1008.01
1003.71 1003.24 1002.76 1002.28 1001.80 1001.32 1000.83 1000.34 999.85 999.37 998.90 998.46 998.05 997.67 997.34 997.06 996.84 996.69 996.62 996.63 996.73 996.92 997.21 997.58 998.03 998.56 999.14 999.77 1000.42 1001.07 1001.72 1002.33 1002.90 1003.43 1003.90 1004.33 1004.72 1005.09 1005.44 1005.79 1006.16 1006.55 1006.97 1007.41
1003.12 1002.60 1002.07 1001.55 1001.03 1000.51 1000.00 999.50 999.01 998.54 998.09 997.66 997.27 996.90 996.57 996.29 996.06 995.90 995.79 995.77 995.84 995.99 996.24 996.58 997.01 997.52 998.10 998.73 999.39 1000.07 1000.74 1001.39 1002.00 1002.57 1003.09 1003.57 1004.01 1004.42 1004.81 1005.20 1005.59 1006.00 1006.44 1006.89
Thickness
5669 5674 5676 5673 5672 5665 5650 5639 5627 5629 5629 5632 5632 5628 5624 5621 5616 5614 5615 5616 5618 5618 5620 5622 5625 5627 5629 5631 5633 5635 5634 5634 5634 5635 5635 5634 5633 5633 5633 5633 5633 5632 5631 5630
5668 5675 5674 5671 5674 5671 5663 5656 5646 5640 5634 5639 5635 5628 5621 5616 5612 5609 5609 5610 5611 5611 5612 5613 5615 5617 5619 5621 5622 5624 5624 5624 5625 5625 5625 5624 5623 5623 5623 5623 5622 5621 5619 5618
5647 5660 5659 5653 5669 5670 5666 5664 5654 5638 5636 5637 5630 5625 5618 5614 5610 5607 5607 5607 5606 5605 5605 5606 5607 5609 5610 5612 5613 5614 5614 5615 5615 5615 5614 5613 5613 5613 5612 5612 5611 5610 5608 5607
5639 5643 5636 5653 5680 5680 5669 5664 5660 5651 5644 5636 5631 5626 5621 5616 5611 5608 5606 5604 5602 5601 5600 5600 5602 5603 5604 5604 5605 5605 5605 5605 5605 5604 5603 5602 5602 5602 5602 5602 5601 5600 5598 5597
5628 5626 5636 5660 5675 5674 5662 5655 5658 5650 5644 5638 5633 5624 5618 5619 5615 5610 5607 5604 5601 5599 5598 5597 5597 5597 5597 5597 5597 5597 5596 5596 5596 5595 5594 5593 5593 5593 5593 5593 5592 5590 5588 5587
5626 5621 5621 5647 5673 5678 5662 5643 5655 5651 5643 5637 5627 5610 5612 5620 5616 5611 5607 5603 5600 5599 5597 5594 5593 5593 5592 5591 5591 5590 5590 5590 5589 5588 5587 5587 5586 5586 5585 5585 5583 5582 5579 5576
5623 5618 5629 5658 5672 5668 5637 5635 5654 5653 5646 5638 5626 5624 5624 5622 5616 5612 5607 5604 5601 5598 5594 5592 5591 5590 5588 5587 5587 5586 5585 5584 5583 5582 5581 5581 5580 5580 5578 5577 5575 5572 5569 5566
5620 5612 5622 5660 5660 5648 5646 5655 5656 5654 5651 5644 5637 5631 5626 5621 5615 5611 5606 5604 5601 5595 5592 5591 5590 5588 5585 5584 5585 5583 5582 5580 5578 5577 5577 5577 5575 5573 5572 5570 5567 5563 5560 5557
5628 5628 5648 5657 5657 5660 5659 5654 5655 5653 5653 5647 5638 5632 5628 5622 5616 5612 5608 5604 5601 5596 5592 5590 5589 5588 5584 5584 5583 5581 5578 5576 5574 5573 5572 5571 5569 5567 5565 5563 5559 5556 5553 5550
5635 5641 5650 5653 5657 5658 5657 5658 5659 5657 5654 5648 5641 5636 5629 5624 5618 5613 5610 5606 5601 5597 5592 5590 5589 5588 5585 5583 5581 5578 5575 5572 5570 5568 5566 5565 5563 5562 5559 5556 5553 5550 5547 5543
5632 5640 5646 5651 5653 5655 5655 5657 5657 5657 5655 5650 5644 5637 5631 5625 5620 5615 5612 5608 5603 5599 5595 5592 5590 5587 5585 5583 5579 5575 5572 5569 5567 5564 5562 5560 5558 5556 5555 5553 5551 5547 5543 5539
5633 5642 5638 5642 5652 5656 5653 5652 5654 5653 5651 5650 5646 5640 5633 5627 5622 5617 5613 5609 5604 5600 5597 5593 5590 5587 5585 5582 5579 5574 5570 5566 5563 5561 5558 5556 5553 5551 5550 5548 5546 5543 5540 5535
5651 5654 5650 5651 5653 5655 5654 5654 5654 5653 5651 5647 5644 5641 5635 5627 5622 5618 5614 5609 5606 5602 5598 5594 5590 5587 5585 5582 5578 5574 5569 5565 5562 5559 5556 5553 5550 5547 5544 5541 5539 5536 5533 5530
5661 5657 5652 5652 5651 5654 5654 5656 5655 5654 5652 5648 5643 5639 5635 5627 5621 5617 5614 5611 5607 5603 5598 5594 5590 5586 5584 5581 5577 5573 5569 5566 5562 5558 5555 5552 5549 5545 5542 5537 5533 5530 5529 5526
5665 5661 5656 5656 5654 5653 5654 5653 5650 5648 5647 5644 5641 5637 5632 5626 5621 5618 5615 5611 5606 5601 5597 5592 5588 5585 5583 5579 5575 5571 5567 5564 5561 5557 5554 5551 5548 5545 5542 5538 5534 5530 5526 5523
5667 5663 5659 5655 5652 5651 5651 5649 5646 5645 5645 5642 5638 5636 5633 5630 5625 5619 5614 5609 5603 5599 5595 5591 5587 5585 5582 5578 5574 5570 5566 5565 5561 5557 5554 5550 5548 5545 5543 5541 5537 5532 5527 5525
5661 5656 5653 5650 5649 5649 5647 5645 5643 5642 5641 5639 5638 5637 5633 5627 5621 5616 5612 5609 5606 5602 5597 5592 5588 5585 5581 5577 5573 5569 5566 5563 5562 5557 5553 5551 5548 5546 5544 5542 5539 5535 5532 5529
5663 5658 5653 5648 5644 5643 5642 5641 5639 5637 5636 5637 5637 5635 5629 5625 5620 5617 5613 5608 5602 5598 5595 5592 5589 5585 5581 5577 5573 5569 5565 5562 5559 5556 5553 5551 5549 5547 5544 5541 5539 5536 5532 5529
5647 5643 5640 5638 5635 5633 5631 5630 5630 5630 5630 5630 5629 5628 5627 5626 5624 5620 5615 5607 5601 5596 5594 5592 5588 5584 5580 5576 5573 5568 5565 5561 5558 5556 5554 5552 5549 5546 5543 5540 5538 5535 5532 5527
5623 5622 5621 5620 5618 5616 5616 5617 5618 5619 5620 5620 5620 5619 5619 5621 5621 5617 5612 5609 5608 5607 5602 5594 5588 5583 5579 5576 5572 5568 5565 5561 5558 5555 5553 5550 5548 5545 5543 5540 5538 5534 5531 5526
5601 5601 5599 5598 5599 5599 5600 5603 5605 5606 5609 5610 5610 5610 5612 5615 5617 5615 5610 5608 5612 5609 5603 5595 5590 5585 5580 5576 5571 5568 5565 5562 5559 5556 5553 5551 5548 5545 5543 5540 5538 5535 5531 5527
5585 5585 5585 5584 5584 5585 5588 5591 5594 5597 5600 5602 5604 5605 5606 5608 5611 5612 5614 5616 5617 5610 5604 5599 5594 5589 5583 5577 5572 5569 5566 5563 5560 5557 5554 5552 5549 5546 5544 5541 5538 5535 5532 5528
5570 5571 5573 5573 5574 5577 5581 5583 5586 5589 5592 5594 5597 5599 5600 5603 5606 5606 5609 5615 5615 5609 5604 5601 5597 5591 5584 5579 5575 5571 5567 5564 5562 5559 5556 5554 5551 5548 5545 5542 5539 5536 5531 5526
5556 5558 5560 5562 5563 5564 5567 5573 5577 5581 5585 5588 5591 5593 5595 5597 5601 5606 5611 5613 5611 5608 5605 5602 5597 5592 5585 5582 5578 5573 5570 5566 5563 5561 5558 5555 5552 5549 5546 5543 5539 5535 5530 5525
5537 5539 5542 5544 5547 5551 5557 5562 5567 5571 5575 5579 5583 5586 5589 5592 5595 5601 5605 5608 5608 5606 5604 5602 5597 5593 5589 5585 5580 5576 5573 5569 5566 5563 5559 5555 5553 5550 5546 5542 5538 5534 5528 5523
5516 5519 5524 5528 5533 5539 5545 5551 5556 5561 5565 5569 5573 5577 5581 5584 5588 5592 5597 5602 5605 5604 5604 5602 5599 5592 5590 5586 5583 5579 5575 5571 5568 5564 5561 5557 5554 5550 5546 5541 5537 5532 5527 5521
5499 5503 5507 5513 5520 5527 5533 5539 5545 5551 5556 5560 5564 5569 5573 5576 5579 5584 5588 5593 5598 5600 5601 5601 5599 5594 5591 5588 5584 5580 5576 5573 5569 5565 5561 5557 5553 5549 5545 5540 5535 5529 5524 5518